STARLINK-32644 (62151 NORAD) Tracking and Keplerian Element Data

This shows tracking and keplerian element data for the satellite.

Feedback or suggestion? Click here.




ElementValue
Catalog62151
NameSTARLINK-32644
Epoch Orbit1142
Epoch Day34.98742202
Epoch Year2025
RAAN256.6806
Inclination43.0002
Eccentricity9.7E-05
Argument of Perigee263.0887
Mean Anonmoly96.9856
Mean Motion15.3204454
Decay Rate9.231E-05
L11 62151U 24224N 25034.98742202 .00009231 00000+0 30051-3 0 9993
L22 62151 43.0002 256.6806 0000970 263.0887 96.9856 15.32044540 11428



Live tracking and technical data element details for STARLINK-32644 (NORAD 62151). STARLINK-32644 can be tracked NOW for your location showing map with azimuth and elevation plus other details from your city location.







IsCatalogInMostPopularTable: catalog: 62151, numindb: 18
Update: records affected: 1



GetName: 62151 STARLINK-32644

Hit Count: updated at: Sat, 24 May 2025 17:27:24 GMT